Battle Creek, MI

9:04 PM EDT on April 23, 2017 (GMT -0400)
Kellogg

Weather History for KBTL - May, 2013

Change the Weather History Date:

Friday, May 24, 2013

  Actual Average Record
Temperature  
Mean Temperature 48 °F 60 °F  
Max Temperature 61 °F 73 °F 88 °F (2007)
Min Temperature 35 °F 48 °F 35 °F (2013)
Degree Days  
Heating Degree Days 17 6  
Month to date heating degree days 117 210  
Since 1 July heating degree days 6344 6599  
Cooling Degree Days 0 1  
Month to date cooling degree days 51 18  
Year to date cooling degree days 51 25  
Moisture  
Dew Point 36 °F    
Average Humidity 66    
Maximum Humidity 92    
Minimum Humidity 40    
Precipitation  
Precipitation 0.00 in 0.13 in 1.14 in (2001)
Month to date precipitation 0.95 2.89  
Year to date precipitation 12.09 10.60  
Sea Level Pressure  
Sea Level Pressure 30.31 in    
Wind  
Wind Speed 6 mph (NNW)    
Max Wind Speed 16 mph    
Max Gust Speed 20 mph    
Visibility 10 miles    
Events      
T = Trace of Precipitation, MM = Missing Value Source: NWS Daily Summary

Daily Weather History Graph

Daily Weather History Graph

Search for Another Location

Airport or City:

Trip Planner

Search our weather history database for the weather conditions in past years. The results will help you decide how hot, cold, wet, or windy it might be!

Date:

Astronomy

May. 24, 2013 Rise Set
Actual Time 6:11 AM EDT 9:04 PM EDT
Civil Twilight 5:38 AM EDT 9:37 PM EDT
Nautical Twilight 4:56 AM EDT 10:19 PM EDT
Astronomical Twilight 4:07 AM EDT 11:08 PM EDT
Moon 8:45 PM EDT 5:44 AM EDT
Length of Visible Light 15h 59m
Length of Day
14h 53m
Full, 100% of the Moon is Illuminated
May 24
Full
May 25
Full
May 31
Last Quarter
Jun 8
New
Jun 16
First Quarter

Hourly Weather History & Observations

Time (EDT) Temp. Windchill Dew Point Humidity Pressure Visibility Wind Dir Wind Speed Gust Speed Precip Events Conditions
12:14 AM 46.4 °F 40.7 °F 37.4 °F 71% 30.19 in 10.0 mi North 12.7 mph 21.9 mph N/A   Overcast
12:26 AM 46.4 °F 40.7 °F 35.6 °F 66% 30.20 in 10.0 mi North 12.7 mph - N/A   Overcast
12:34 AM 46.4 °F 40.4 °F 35.6 °F 66% 30.20 in 10.0 mi North 13.8 mph - N/A   Overcast
12:41 AM 46.4 °F 41.5 °F 35.6 °F 66% 30.20 in 10.0 mi North 10.4 mph - N/A   Overcast
12:53 AM 45.0 °F 38.5 °F 33.1 °F 63% 30.22 in 10.0 mi North 13.8 mph 21.9 mph N/A   Overcast
1:53 AM 42.1 °F 36.6 °F 34.0 °F 73% 30.23 in 10.0 mi North 9.2 mph - N/A   Mostly Cloudy
2:53 AM 39.9 °F 34.5 °F 34.0 °F 79% 30.24 in 10.0 mi North 8.1 mph - N/A   Clear
3:53 AM 39.0 °F 34.8 °F 34.0 °F 82% 30.26 in 10.0 mi North 5.8 mph - N/A   Clear
4:53 AM 37.0 °F 32.4 °F 33.1 °F 86% 30.27 in 10.0 mi North 5.8 mph - N/A   Clear
5:53 AM 36.0 °F 32.1 °F 33.1 °F 89% 30.28 in 10.0 mi North 4.6 mph - N/A   Clear
6:53 AM 37.0 °F 33.3 °F 33.1 °F 86% 30.31 in 10.0 mi North 4.6 mph - N/A   Clear
7:53 AM 39.9 °F 33.9 °F 34.0 °F 79% 30.33 in 10.0 mi North 9.2 mph - N/A   Clear
8:53 AM 43.0 °F 38.2 °F 34.0 °F 71% 30.36 in 10.0 mi NNE 8.1 mph - N/A   Clear
9:53 AM 46.9 °F - 33.1 °F 59% 30.36 in 10.0 mi North 12.7 mph - N/A   Clear
10:53 AM 48.9 °F - 35.1 °F 59% 30.38 in 10.0 mi Variable 6.9 mph - N/A   Clear
11:53 AM 51.1 °F - 36.0 °F 56% 30.38 in 10.0 mi North 8.1 mph - N/A   Clear
12:53 PM 53.1 °F - 37.0 °F 55% 30.38 in 10.0 mi Variable 6.9 mph - N/A   Clear
1:53 PM 54.0 °F - 37.0 °F 53% 30.38 in 10.0 mi Variable 3.5 mph - N/A   Clear
2:53 PM 57.0 °F - 37.9 °F 49% 30.38 in 10.0 mi WNW 9.2 mph - N/A   Partly Cloudy
3:53 PM 59.0 °F - 37.9 °F 46% 30.36 in 10.0 mi North 6.9 mph - N/A   Partly Cloudy
4:53 PM 59.0 °F - 36.0 °F 42% 30.35 in 10.0 mi Variable 3.5 mph - N/A   Clear
5:53 PM 60.1 °F - 37.9 °F 44% 30.34 in 10.0 mi NNE 5.8 mph - N/A   Clear
6:53 PM 59.0 °F - 37.9 °F 46% 30.32 in 10.0 mi Variable 6.9 mph - N/A   Clear
7:53 PM 57.9 °F - 39.0 °F 49% 30.31 in 10.0 mi WNW 4.6 mph - N/A   Clear
8:53 PM 54.0 °F - 41.0 °F 62% 30.30 in 10.0 mi WNW 3.5 mph - N/A   Clear
9:53 PM 52.0 °F - 41.0 °F 66% 30.32 in 10.0 mi NW 4.6 mph - N/A   Clear
10:53 PM 48.0 °F - 42.1 °F 80% 30.35 in 10.0 mi WNW 4.6 mph - N/A   Clear
11:53 PM 46.9 °F - 41.0 °F 80% 30.37 in 10.0 mi West 3.5 mph - N/A   Clear